sat.trackr.live / text

‹ back to catalog

STARLINK-37856

NORAD 69491 · 2026-131P

PAYLOAD ACTIVE UNKNOWN

§ Identity

Operator
Country
US
Launch date
2026-06-11
Launch site
AFWTR
Launch vehicle
Mass (kg)
RCS (m²)

Purposes: comms

External: N2YO · Heavens-Above · Gunter

§ Orbital elements

Epoch: 2026-09-20T00:14:39.004224Z

Period
93.91 min
Inclination
97.2842°
Eccentricity
0.0001208
Mean motion
15.33453903 rev/d
Perigee alt
464.7 km
Apogee alt
466.3 km
Semi-major
6,843.7 km
B*
3.0931e-4
RAAN
283.8995°
Arg perigee
99.4714°
Mean anomaly
260.6665°
Rev number
1,682

§ Raw data

STARLINK-378561 69491U 26131P   26263.01017366  .00009927  00000+0  30931-3 0  99902 69491  97.2842 283.8995 0001208  99.4714 260.6665 15.33453903 16826

JSON: /api/v1/satellites/69491 · /tle

For live sub-satellite position, see the globe view (requires WebGL).

§ Visibility from observer

Set your observer location to see the next 7 days of passes ≥ 10°. The values pass through the URL so the page stays shareable.

No JS? Fill the form by hand. The geolocation button needs JavaScript.